NOAA 16 DEB

Satellite information

Favourite Embed

Satellite Type and Status

DEBRISIN ORBIT

Key statistics

Satellite NOAA 16 DEB at a glance.

Uptime

9057

Days in orbit

Revolutions

≈ 14.7

Per day

Orbit

SSO

Sun Synchronous Orbit

Inclination

98.9

Latest

Satellite identification and parameters

Extended collection of information and parameters for NOAA 16 DEB.

Object identification

Identified? True

Debris? True

Object name: NOAA 16 DEB

International designator: 2000-055NV

Object number (NORAD): 41656

Object ID (CCSDS): 41656

Country: UNITED STATES OF AMERICA (US)

Current information (Y/N): Y

RCS size: SMALL

Orbital parameters

Period: 97.833 minutes

Inclination: 98.861 deg

SMA: 7033.173 km

Apoapsis: 656.699 km

Periapsis: 653.378 km

RAAN: 322.4783 deg

Eccentricy: 0.0002361

Argument of periapsis: 238.009 deg

Mean anomaly: 122.0885 deg

Mean motion: 14.7189142 rev/day

Mean motion (dot): 0.00025017 rev/day2

B* drag term: 0.0039904 1/REarth

Two-line elements (TLE)

Creation date: July 9, 2025, 2:22 a.m.

Reference frame: TEME

Reference center: EARTH

Epoch: July 8, 2025, 7:50 p.m. UTC

TLE line 0: 0 NOAA 16 DEB

TLE line 1: 1 41656U 00055NV 25189.82685714 .00025017 00000-0 39904-2 0 9990

TLE line 2: 2 41656 98.8610 322.4783 0002361 238.0090 122.0885 14.71891420478001

Live tracking on map

Real-time ground track for satellite NOAA 16 DEB.

In-orbit conjunctions

A list of the most updated potential collisions computed for object NOAA 16 DEB.

Target Orbit TCA Probability of collision Miss distance Type
COSMOS 1818 COOLANT LEO 2024-09-10 13:02:57 0.000175573 33.0 (m) DEBRIS
CZ-2C R/B SSO 2024-08-18 08:28:20 0.0001621232 636.0 (m) ROCKET BODY
COSMOS 836 LEO 2024-07-27 17:49:42 0.0003642681 140.0 (m) PAYLOAD
COSMOS 1818 LEO 2024-07-01 00:17:00 0.0001354529 838.0 (m) PAYLOAD

Associated space launch

The NOAA K, L and M POES satellites begin the fifth generation of improved environmental monitoring in support of NOAA missions. The instrument payload has significant improvements and additions/deletions. The instrument changes have effected the spacecraft subsystems and data formats.

NOAA 16 DEB was lifted into orbit during the mission ‘Titan II SLV | NOAA 16’, on board a Titan II SLV space rocket.

The launch took place on Sept. 21, 2000, 10:22 a.m. from Space Launch Complex 4W.

For more information about the launch, click the button.

Launch to space Titan II SLV | NOAA 16
Titan II SLV | NOAA 16

Agency: N/A

Status: Launch Successful

Launch date: Sept. 21, 2000, 10:22 a.m. UTC

Rocket: Titan II SLV

Launch pad: Space Launch Complex 4W

Location: Vandenberg SFB, CA, USA

...

Latest news about this satellite

There are no fresh news available about this satellite. Check back as we update our databases every day.


Newsletter sign-up

Weekly statistics, charts and insights to help you stay on top of the space industry.